User: anonymous   Login
Location: Knowlton
(51.2333°N, 1.2667°E)
Time: 04:06:45
(UTC+00:00)
Language:

AO-91 - Orbit

View from above orbital plane
View from above orbital plane
View from above satellite
View from above satellite

Ground track
Ground track

The orbit data is extracted from the following two-line orbital elements,

1 43017U 17073E   21339.61732607  .00001119  00000-0  89687-4 0  9997
2 43017  97.6925 236.6994 0254863 101.5940 261.3998 14.79989827218432
Epoch (UTC): 05 December 2021 14:48:56
Eccentricity: 0.0254863
inclination: 97.6925°
perigee height: 451 km
apogee height: 808 km
right ascension of ascending node: 236.6994°
argument of perigee: 101.5940°
revolutions per day: 14.79989827
mean anomaly at epoch: 261.3998°
orbit number at epoch: 21843

The dashed part of the orbit path shows where the satellite is in the earth's shadow,  

DLR